Hourly Data Report for October 25, 2015

All times are specified in Local Standard Time (LST). Add 1 hour to adjust for Daylight Saving Time where and when it is observed.

PETAWAWA AWOS 2
ONTARIO

45°57'00.000" N
77°19'00.000" W
130.10 m
6106396
71625
YWA

Download Data

Hourly Data (October 2015)
Hourly Data Report for October 25, 2015
Temp Definition
°C
Dew Point Temp Definition
°C
Rel Hum Definition
%
Wind Dir Definition
10's deg

Wind Spd Definition
km/h
Visibility Definition
km
Stn Press Definition
kPa
Hmdx Definition


Wind Chill Definition


Weather Definition


TIME
00:00 9.7 8.8 94 14 13 14.5 98.93     Rain
01:00 10.2 9.4 95 14 9 14.5 98.87     LegendNANA
02:00 10.8 9.8 94 17 6 14.5 98.83     LegendNANA
03:00 12.4 10.9 91 24 15 14.5 98.90     LegendNANA
04:00 9.6 7.2 85 30 22 14.5 99.21     Drizzle
05:00 8.0 4.8 80 30 30 14.5 99.48     Drizzle
06:00 6.5 3.3 80 31 20 14.5 99.70     Drizzle
07:00 6.2 3.1 80 31 20 14.5 99.88     Drizzle
08:00 5.6 3.3 85 31 17 14.5 100.07     LegendNANA
09:00 6.0 2.2 77 31 15 14.5 100.22     LegendNANA
10:00 6.5 2.2 74 30 20 14.5 100.34     LegendNANA
11:00 7.1 2.1 70 33 15 14.5 100.40     LegendNANA
12:00 6.5 1.4 70 30 11 14.5 100.47     Rain
13:00 7.0 2.3 72 32 22 14.5 100.49     Rain
14:00 8.1 1.1 61 34 20 14.5 100.51     LegendNANA
15:00 7.9 1.8 65 33 13 14.5 100.59     LegendNANA
16:00 7.4 1.1 64 34 24 14.5 100.66     LegendNANA
17:00 6.5 0.4 65 29 11 14.5 100.77     LegendNANA
18:00 5.1 0.7 73 32 17 14.5 100.94     Rain
19:00 4.5 -2.0 63 32 17 14.5 101.06     LegendNANA
20:00 3.6 -2.8 63 31 11 14.5 101.13     LegendNANA
21:00 2.5 -2.7 68 31 11 14.5 101.23     LegendNANA
22:00 0.9 -3.4 73 29 9 14.5 101.27     LegendNANA
23:00 -0.6 -3.8 79 28 7 14.5 101.32   -3 LegendNANA

Notes on Data Quality.

Legend

  • E = Estimated
  • M = Missing
  • NA = Not Available
  • ‡ = Partner data that is not subject to review by the National Climate Archives
Date modified: